Wind_Speed
28 28 29 28 27 28 28 29 30 30 31 32 35 37 40 43 44 46 48 50 52 54 57 60 63 66 68 70 72 74 75 74 74 75 75 74 73 71 68 65 63 62 61 61
30 31 32 31 28 30 31 31 33 34 34 35 37 39 41 44 45 47 49 51 53 55 57 60 63 65 68 70 71 74 75 75 74 75 75 74 73 71 68 65 62 61 61 60
33 33 35 33 30 32 34 34 36 37 37 39 40 41 43 45 47 49 51 53 54 56 57 60 62 65 67 69 71 73 75 75 74 74 74 73 72 71 68 65 62 60 60 59
37 36 38 33 33 34 36 36 38 39 40 42 43 43 44 47 49 50 52 54 55 56 57 59 62 64 67 69 71 72 74 75 74 74 74 73 72 70 68 65 61 59 59 58
39 40 40 35 35 37 39 39 40 42 43 44 45 45 44 47 49 51 52 54 55 56 57 59 61 64 66 69 70 71 73 74 74 73 73 72 71 70 68 65 61 59 58 57
41 43 43 38 38 39 41 42 42 44 45 46 48 49 48 49 51 52 53 54 56 57 58 59 61 63 65 68 69 71 72 73 73 73 73 72 70 69 67 65 61 58 57 57
42 45 45 40 40 42 43 44 45 47 48 49 50 51 52 52 53 53 54 55 56 57 58 59 61 63 65 67 69 70 71 71 72 72 72 71 70 69 67 64 61 58 56 56
43 46 44 41 42 42 44 46 47 49 51 52 53 53 54 54 55 55 55 56 57 58 58 59 61 62 64 66 68 69 69 70 71 71 70 70 69 68 66 64 61 58 56 54
47 46 43 42 42 43 46 48 50 52 53 54 55 55 55 55 56 56 56 57 58 59 59 60 61 62 64 66 68 68 68 68 70 70 69 69 68 67 65 64 61 58 55 53
51 47 44 43 44 45 48 51 53 54 55 56 57 56 56 57 57 57 57 58 59 60 60 60 62 63 64 66 67 67 67 67 68 68 67 67 67 66 65 63 61 58 54 52
54 50 48 47 48 49 51 54 55 57 58 58 59 59 59 60 59 59 59 60 60 61 61 61 62 63 64 65 66 66 66 66 67 67 66 66 65 65 64 63 61 58 55 51
58 54 56 54 52 53 55 56 58 59 60 60 61 62 62 62 62 62 62 62 62 62 62 62 63 63 64 64 65 65 64 64 64 65 64 64 64 63 63 62 61 58 54 51
60 59 60 60 58 58 59 60 60 61 62 62 62 63 64 64 64 65 64 64 64 64 64 64 64 64 64 64 64 63 63 62 62 63 62 61 61 61 61 60 60 58 54 51
61 62 63 62 62 60 61 61 61 61 61 62 62 63 64 65 65 65 66 65 65 65 64 64 63 64 64 63 63 62 61 60 60 60 60 59 59 59 59 58 57 56 54 50
61 63 64 64 62 61 61 61 61 60 59 60 60 60 61 62 62 63 63 64 64 64 64 63 62 63 63 62 61 59 59 58 57 58 57 57 57 57 57 56 56 55 53 51
60 61 62 62 61 60 59 60 60 58 58 57 57 57 57 58 58 59 59 60 60 61 61 62 61 60 60 60 59 57 56 55 54 55 55 54 54 55 55 54 54 54 52 50
55 56 57 57 57 55 55 56 56 56 56 56 56 55 55 55 55 56 57 57 58 58 59 59 58 58 58 57 56 55 53 53 52 52 52 52 52 52 52 52 52 52 51 49
49 50 50 50 50 50 51 52 53 54 54 54 54 54 54 53 53 53 53 53 54 54 55 56 57 56 56 55 54 52 51 50 49 49 49 49 49 50 50 50 50 50 50 48
46 48 50 51 53 54 54 54 54 55 55 56 56 56 56 56 55 54 53 52 52 53 54 55 56 55 54 54 52 50 48 47 47 46 47 47 47 47 47 47 48 48 48 47
47 48 49 51 52 53 53 54 55 55 56 56 56 56 55 56 56 54 54 53 52 51 52 53 53 53 53 52 51 48 46 45 44 44 45 44 44 45 45 45 45 46 47 46
47 48 49 49 50 52 53 55 56 57 58 59 59 58 57 56 56 55 53 53 51 51 51 51 51 51 51 50 48 46 44 42 42 42 42 42 42 42 42 42 43 44 45 45
48 49 50 52 54 56 57 59 61 62 63 63 63 62 61 60 58 57 55 54 52 52 51 51 50 49 49 48 45 43 41 40 39 39 40 39 39 39 40 40 41 42 43 43
50 52 54 56 58 60 61 63 64 65 66 66 65 65 64 63 61 59 56 54 53 52 51 50 49 48 47 45 43 40 39 38 37 37 37 37 36 37 37 38 39 40 41 42
52 54 56 58 61 62 64 65 67 67 67 67 66 65 65 64 61 59 57 54 52 51 50 49 47 46 45 43 40 38 37 35 34 34 35 34 34 35 35 36 37 38 40 40
53 55 57 59 62 64 65 66 65 65 65 64 64 64 63 62 59 56 54 53 51 48 47 46 45 44 42 40 37 36 34 33 32 32 32 32 32 32 33 34 35 36 38 39
54 56 58 61 63 65 65 65 65 65 65 64 63 62 60 57 55 53 50 49 48 46 45 45 43 42 40 37 35 34 32 31 30 30 30 30 30 30 31 32 33 35 36 37
56 58 60 62 63 64 64 65 65 66 65 64 62 60 57 54 51 49 46 44 44 43 42 42 40 39 36 34 32 31 30 28 27 28 28 27 27 28 29 30 31 33 34 36
Wind_Direction
262 265 267 270 274 279 285 291 297 303 308 312 315 319 322 324 327 330 332 335 338 340 342 343 344 346 347 348 348 349 350 350 350 350 351 352 353 354 355 354 354 354 354 355
261 264 268 270 276 280 284 289 294 298 304 307 310 314 317 319 322 325 328 331 334 337 339 341 343 344 345 346 347 348 350 350 350 350 351 352 354 355 355 355 355 355 355 355
264 265 268 271 276 278 282 287 291 295 300 302 306 310 313 315 319 322 325 328 331 334 336 338 340 342 344 345 346 347 349 349 349 350 351 352 354 355 356 356 356 356 356 356
269 268 269 275 276 278 280 284 288 292 296 299 302 306 310 312 315 318 321 324 327 330 333 336 338 340 342 344 345 346 347 349 349 350 351 352 353 355 356 357 356 356 357 357
272 272 274 275 277 278 280 283 286 290 292 295 298 302 305 308 311 314 318 321 324 327 330 333 336 338 340 342 343 345 346 348 348 349 350 351 353 355 357 357 357 357 357 358
273 275 277 279 279 279 280 283 285 288 290 293 296 299 302 305 308 311 315 318 321 324 328 330 333 335 338 340 341 343 345 346 348 348 349 351 352 355 357 357 357 357 358 358
274 276 278 282 282 282 283 285 285 287 289 291 294 298 301 303 306 309 312 315 318 321 324 328 330 333 335 337 339 341 343 345 346 347 348 350 351 354 356 357 358 358 358 358
274 275 279 281 281 282 283 283 285 287 289 291 293 296 299 301 304 307 310 312 315 318 321 324 327 330 332 334 337 339 341 343 345 346 347 349 350 353 356 357 358 358 358 358
274 277 279 280 281 281 281 282 283 285 287 290 292 295 297 300 302 305 307 310 312 315 318 321 324 326 329 331 334 336 338 340 343 345 346 348 349 352 355 357 358 358 358 358
275 277 278 278 278 278 278 280 281 283 285 287 290 292 295 297 300 302 304 306 309 311 314 317 320 323 325 328 331 334 336 338 340 343 344 346 348 351 353 356 357 358 358 359
277 279 278 277 277 277 277 278 280 281 283 285 287 290 292 294 296 298 300 302 305 307 310 313 316 319 322 324 327 330 333 335 338 341 343 344 347 349 352 355 357 358 358 359
279 280 280 278 277 277 278 279 279 280 281 282 284 287 288 290 292 294 296 299 301 303 306 309 312 315 318 321 323 326 329 332 335 339 341 343 345 348 351 353 356 358 358 358
279 279 279 280 280 280 280 280 281 282 283 284 284 285 286 287 289 290 293 295 297 300 303 305 308 311 314 317 320 323 326 329 332 336 339 341 343 346 349 352 355 357 358 358
279 279 279 279 280 281 281 282 282 283 284 285 285 285 285 286 288 289 291 293 295 297 299 302 305 307 310 313 316 319 323 326 329 334 337 339 342 344 348 351 353 356 357 358
278 278 279 280 281 282 282 282 283 284 285 285 286 287 287 288 289 289 290 292 294 295 296 299 301 304 306 309 312 316 319 323 326 331 335 337 340 343 346 350 352 355 356 357
279 279 280 281 282 283 283 284 285 285 285 286 287 288 289 290 291 291 290 291 292 293 294 296 298 300 303 306 309 312 316 319 323 328 333 335 338 341 344 348 351 354 356 357
282 282 282 283 284 285 286 286 287 288 289 289 289 290 290 291 291 292 292 291 291 292 293 294 295 297 299 302 306 309 312 316 320 325 330 333 336 339 343 346 350 353 355 356
282 284 285 286 287 288 288 289 290 290 290 290 290 291 291 291 292 292 292 292 291 291 291 292 292 294 297 299 302 306 309 312 317 322 328 331 334 337 341 345 348 351 354 355
283 284 286 287 288 288 289 290 290 290 290 290 289 289 289 290 290 290 291 291 289 288 288 288 289 291 293 296 299 303 306 309 314 319 325 329 332 335 339 343 347 350 353 355
285 286 286 288 289 290 290 290 290 290 291 291 291 291 291 290 289 289 289 289 288 286 286 287 288 289 290 293 296 299 303 306 311 316 322 327 330 333 337 342 346 349 352 354
286 288 289 290 290 291 291 292 292 291 291 290 290 290 290 289 289 288 287 287 286 284 284 284 285 287 288 289 292 296 299 303 307 313 320 325 328 331 335 340 344 348 350 353
288 289 290 290 291 292 292 292 292 291 291 290 289 289 288 288 287 286 285 284 283 282 281 281 282 284 285 286 288 292 296 300 304 311 318 322 326 329 333 338 342 346 349 352
289 290 290 291 292 292 293 293 293 292 291 290 289 287 286 286 285 284 282 281 280 279 278 277 279 280 282 284 285 288 293 297 302 308 315 319 323 327 331 336 341 345 348 351
290 291 291 292 293 294 293 293 293 292 292 291 289 287 286 284 282 281 279 277 277 276 275 274 275 277 279 281 282 285 290 294 299 306 313 317 320 325 329 334 339 344 347 350
292 293 294 295 296 296 295 295 295 294 293 292 290 288 286 284 282 280 277 275 273 272 270 269 271 273 277 278 279 282 286 290 297 304 310 314 318 323 328 333 338 342 346 349
293 294 295 296 297 297 296 296 296 296 294 292 290 288 286 284 282 279 276 272 270 268 265 265 267 269 271 273 276 279 282 287 294 302 308 311 316 321 326 331 336 341 345 348
294 295 296 297 298 298 298 299 298 297 295 293 290 287 285 282 279 276 272 269 267 264 261 261 263 265 265 267 270 274 279 284 291 299 305 309 313 319 324 329 335 339 344 347
Height
5834 5832 5830 5830 5829 5826 5823 5820 5817 5814 5810 5806 5800 5794 5788 5782 5775 5768 5761 5753 5744 5735 5726 5715 5704 5692 5680 5667 5653 5639 5624 5609 5594 5579 5563 5546 5530 5513 5498 5482 5468 5454 5440 5426
5828 5825 5823 5823 5823 5819 5816 5814 5810 5807 5804 5799 5794 5789 5783 5776 5770 5763 5755 5747 5738 5729 5720 5710 5699 5687 5675 5662 5649 5635 5620 5605 5590 5575 5559 5543 5527 5511 5495 5480 5466 5452 5438 5424
5820 5818 5815 5816 5817 5813 5810 5807 5803 5799 5797 5792 5787 5782 5776 5769 5763 5756 5748 5740 5732 5723 5714 5704 5694 5682 5670 5657 5644 5630 5616 5601 5586 5571 5556 5540 5524 5509 5493 5479 5465 5451 5437 5424
5810 5810 5807 5813 5809 5805 5802 5800 5796 5792 5788 5783 5778 5774 5769 5761 5755 5748 5741 5734 5726 5717 5708 5698 5688 5677 5665 5652 5639 5626 5612 5597 5583 5568 5553 5537 5522 5506 5491 5477 5463 5450 5437 5423
5801 5799 5798 5803 5801 5796 5792 5791 5788 5783 5779 5774 5769 5766 5762 5755 5748 5742 5735 5727 5719 5710 5701 5692 5682 5671 5659 5648 5635 5622 5608 5594 5580 5565 5550 5535 5519 5504 5490 5476 5462 5449 5436 5423
5792 5789 5789 5794 5791 5786 5783 5781 5779 5774 5769 5765 5760 5756 5754 5747 5740 5734 5727 5719 5711 5703 5694 5685 5675 5665 5654 5642 5630 5618 5604 5591 5577 5562 5547 5532 5518 5503 5488 5474 5461 5447 5435 5423
5783 5779 5779 5783 5779 5775 5774 5772 5768 5763 5759 5755 5750 5746 5742 5736 5730 5724 5718 5710 5703 5695 5687 5678 5668 5659 5648 5637 5626 5613 5600 5587 5574 5559 5545 5530 5516 5501 5487 5473 5460 5447 5434 5422
5773 5770 5773 5771 5769 5766 5763 5760 5756 5751 5747 5743 5740 5735 5730 5725 5720 5714 5708 5701 5694 5686 5679 5670 5661 5652 5642 5632 5621 5609 5596 5584 5571 5557 5543 5528 5514 5500 5486 5472 5459 5446 5433 5421
5763 5764 5763 5760 5758 5755 5751 5748 5744 5740 5736 5732 5728 5724 5719 5715 5709 5704 5698 5691 5684 5677 5670 5662 5654 5645 5636 5626 5615 5604 5592 5580 5567 5554 5540 5527 5512 5498 5485 5471 5458 5446 5434 5422
5750 5752 5752 5748 5746 5743 5739 5735 5732 5728 5724 5720 5715 5712 5708 5703 5698 5693 5687 5680 5674 5667 5661 5653 5646 5638 5629 5620 5609 5599 5587 5576 5564 5551 5538 5525 5511 5497 5484 5471 5458 5445 5434 5423
5737 5740 5737 5736 5733 5729 5726 5722 5719 5716 5712 5707 5702 5699 5695 5690 5686 5680 5675 5669 5663 5657 5651 5644 5637 5629 5621 5613 5603 5593 5582 5571 5560 5548 5535 5522 5509 5496 5483 5470 5458 5446 5434 5423
5724 5726 5719 5719 5719 5715 5711 5708 5705 5701 5698 5695 5690 5685 5681 5677 5672 5667 5662 5657 5652 5646 5641 5635 5628 5621 5613 5605 5596 5587 5577 5566 5555 5544 5532 5520 5507 5494 5481 5469 5456 5444 5433 5422
5709 5708 5702 5700 5701 5700 5695 5692 5690 5686 5682 5679 5675 5670 5666 5662 5658 5653 5649 5644 5640 5635 5630 5625 5618 5611 5604 5597 5589 5580 5571 5561 5551 5540 5529 5517 5505 5492 5480 5467 5455 5443 5432 5421
5692 5688 5683 5683 5682 5682 5678 5675 5672 5669 5666 5662 5658 5654 5649 5646 5643 5639 5635 5631 5627 5622 5618 5613 5607 5601 5594 5587 5580 5572 5564 5555 5545 5535 5525 5513 5502 5490 5478 5466 5454 5442 5431 5421
5673 5669 5664 5664 5665 5665 5661 5657 5654 5653 5650 5646 5641 5638 5634 5630 5628 5625 5621 5616 5613 5609 5604 5600 5596 5590 5584 5578 5571 5564 5557 5548 5539 5530 5520 5510 5499 5487 5476 5464 5453 5441 5430 5420
5654 5650 5648 5647 5647 5646 5644 5640 5637 5635 5632 5629 5626 5622 5619 5616 5613 5610 5606 5602 5598 5595 5591 5587 5583 5578 5572 5567 5562 5556 5549 5541 5533 5525 5515 5505 5495 5484 5473 5463 5452 5441 5430 5419
5635 5634 5632 5631 5631 5630 5627 5623 5620 5618 5615 5612 5609 5606 5603 5600 5597 5594 5591 5588 5584 5581 5577 5574 5570 5565 5561 5556 5551 5546 5540 5534 5526 5519 5510 5501 5491 5481 5471 5460 5450 5439 5429 5419
5621 5619 5618 5616 5614 5613 5611 5608 5605 5602 5599 5596 5593 5590 5587 5584 5581 5578 5575 5572 5569 5566 5563 5560 5556 5552 5549 5545 5541 5537 5531 5525 5519 5512 5504 5496 5487 5477 5467 5458 5448 5438 5428 5418
5609 5607 5605 5602 5599 5597 5595 5592 5589 5586 5582 5579 5576 5574 5571 5568 5565 5562 5559 5557 5554 5551 5548 5545 5542 5540 5537 5534 5530 5527 5522 5517 5512 5505 5498 5490 5482 5473 5464 5455 5445 5436 5426 5417
5596 5593 5591 5588 5585 5582 5579 5575 5572 5569 5565 5562 5559 5556 5554 5551 5548 5545 5543 5541 5539 5536 5533 5531 5529 5527 5525 5522 5519 5516 5513 5508 5504 5498 5492 5485 5477 5469 5460 5452 5442 5433 5424 5415
5582 5580 5576 5573 5570 5567 5563 5559 5555 5552 5548 5544 5540 5537 5535 5533 5530 5528 5526 5525 5523 5520 5518 5516 5515 5514 5512 5510 5508 5506 5503 5499 5495 5491 5485 5478 5471 5464 5456 5448 5439 5431 5422 5413
5568 5564 5561 5557 5554 5550 5546 5541 5536 5532 5528 5524 5520 5517 5515 5514 5511 5510 5508 5507 5506 5504 5503 5502 5502 5501 5499 5498 5497 5496 5493 5490 5487 5483 5478 5472 5466 5459 5452 5444 5436 5428 5420 5411
5552 5548 5544 5540 5536 5532 5528 5522 5516 5511 5507 5503 5499 5496 5493 5492 5491 5490 5490 5489 5487 5487 5487 5488 5487 5487 5486 5486 5486 5485 5483 5481 5479 5475 5471 5466 5460 5454 5447 5440 5433 5425 5417 5409
5536 5531 5527 5522 5517 5512 5507 5502 5495 5489 5484 5480 5476 5473 5470 5470 5470 5468 5468 5469 5469 5470 5471 5472 5473 5473 5474 5475 5475 5475 5473 5472 5470 5467 5463 5459 5454 5448 5442 5436 5429 5421 5414 5406
5519 5514 5509 5503 5498 5492 5485 5479 5474 5468 5462 5457 5454 5450 5447 5446 5447 5448 5448 5450 5451 5452 5454 5456 5458 5460 5462 5464 5464 5464 5464 5463 5461 5459 5456 5452 5447 5442 5437 5431 5425 5418 5411 5404
5502 5497 5491 5485 5478 5471 5464 5458 5453 5448 5442 5437 5433 5430 5427 5426 5426 5427 5429 5430 5433 5435 5438 5441 5444 5447 5450 5453 5453 5454 5454 5454 5453 5451 5448 5445 5441 5437 5432 5426 5421 5414 5408 5401
5486 5480 5474 5468 5460 5452 5445 5438 5432 5426 5420 5414 5411 5409 5407 5406 5407 5408 5410 5413 5416 5419 5423 5427 5431 5435 5438 5441 5443 5443 5444 5444 5444 5443 5441 5438 5435 5431 5427 5422 5416 5410 5404 5398